Weather History for Plant City, FL

Change the Weather History Date:

Friday, November 9, 2012

  Actual Average Record
Temperature  
Mean Temperature 60 °F -  
Max Temperature 75 °F 80 °F 89 °F (1980)
Min Temperature 44 °F 55 °F 33 °F (1976)
Degree Days  
Heating Degree Days 6    
Growing Degree Days 10 (Base 50)    
Moisture  
Dew Point 43 °F    
Average Humidity 56    
Maximum Humidity 100    
Minimum Humidity 24    
Precipitation  
Precipitation 0.00 in - - ()
Sea Level Pressure  
Sea Level Pressure 30.23 in    
Wind  
Wind Speed 3 mph (NE)    
Max Wind Speed 9 mph    
Max Gust Speed -    
Visibility 10 miles    
Events      
Averages and records for this station are not official NWS values.
T = Trace of Precipitation, MM = Missing Value Source: NWS Daily Summary

Daily Weather History Graph

Daily Weather History Graph

Search for Another Location

Airport:

Trip Planner

Search our weather history database for the weather conditions in past years. The results will help you decide how hot, cold, wet, or windy it might be!

Date:

Astronomy

Nov. 09, 2012 Rise Set
Actual Time 6:46 AM EST 5:38 PM EST
Civil Twilight 6:21 AM EST 6:03 PM EST
Nautical Twilight 5:53 AM EST 6:31 PM EST
Astronomical Twilight 5:25 AM EST 6:59 PM EST
Moon 2:06 AM EST (11/9) 2:30 PM EST (11/9)
Length of Visible Light 11h 41m
Length of Day
10h 52m
Waning Crescent, 23% of the Moon is Illuminated
Nov 9
Waning Crescent
Nov 13
New
Nov 20
First Quarter
Nov 28
Full
Dec 6
Last Quarter

Hourly Weather History & Observations

Time (EST) Temp. Windchill Dew Point Humidity Pressure Visibility Wind Dir Wind Speed Gust Speed Precip Events Conditions
12:15 AM 50.0 °F - 46.4 °F 87% 30.20 in 10.0 mi Calm Calm - N/A   Clear
12:35 AM 50.0 °F - 48.2 °F 94% 30.20 in 10.0 mi Calm Calm - N/A   Clear
12:55 AM 50.0 °F - 48.2 °F 94% 30.20 in 10.0 mi NNE 3.5 mph - N/A   Clear
1:15 AM 50.0 °F - 46.4 °F 87% 30.20 in 10.0 mi NE 3.5 mph - N/A   Clear
1:35 AM 50.0 °F - 46.4 °F 87% 30.20 in 10.0 mi Calm Calm - N/A   Clear
1:55 AM 48.2 °F - 48.2 °F 100% 30.20 in 10.0 mi NE 3.5 mph - N/A   Clear
2:15 AM 48.2 °F - 48.2 °F 100% 30.20 in 10.0 mi Calm Calm - N/A   Clear
2:35 AM 48.2 °F - - N/A% 30.20 in 10.0 mi Calm Calm - N/A   Clear
2:55 AM 46.4 °F - - N/A% 30.20 in 10.0 mi Calm Calm - N/A   Clear
3:15 AM 46.4 °F 45.2 °F - N/A% 30.20 in 10.0 mi North 3.5 mph - N/A   Clear
3:35 AM 46.4 °F - - N/A% 30.21 in 10.0 mi Calm Calm - N/A   Clear
3:55 AM 46.4 °F - - N/A% 30.21 in 10.0 mi Calm Calm - N/A   Clear
4:15 AM 46.4 °F - - N/A% 30.21 in 10.0 mi Calm Calm - N/A   Clear
4:35 AM 44.6 °F - - N/A% 30.22 in 7.0 mi Calm Calm - N/A   Clear
4:55 AM 44.6 °F 43.1 °F - N/A% 30.22 in 7.0 mi NNE 3.5 mph - N/A   Clear
5:15 AM 44.6 °F 43.1 °F - N/A% 30.22 in 7.0 mi NNE 3.5 mph - N/A   Clear
5:35 AM 44.6 °F - - N/A% 30.22 in 10.0 mi Calm Calm - N/A   Clear
5:55 AM 46.4 °F 44.3 °F - N/A% 30.23 in 10.0 mi North 4.6 mph - N/A   Clear
6:15 AM 46.4 °F 43.5 °F - N/A% 30.23 in 10.0 mi North 5.8 mph - N/A   Clear
6:55 AM 46.4 °F - - N/A% 30.25 in 7.0 mi Calm Calm - N/A   Clear
7:15 AM 46.4 °F 45.2 °F - N/A% 30.26 in 10.0 mi NNE 3.5 mph - N/A   Clear
7:35 AM 48.2 °F - - N/A% 30.27 in 7.0 mi Calm Calm - N/A   Clear
7:55 AM 50.0 °F - - N/A% 30.27 in 10.0 mi North 4.6 mph - N/A   Clear
8:15 AM 53.6 °F - 48.2 °F 82% 30.27 in 10.0 mi NNE 4.6 mph - N/A   Clear
8:35 AM 55.4 °F - 48.2 °F 77% 30.27 in 10.0 mi NNE 6.9 mph - N/A   Clear
8:55 AM 59.0 °F - 46.4 °F 63% 30.27 in 10.0 mi NNE 8.1 mph - N/A   Clear
9:15 AM 60.8 °F - 44.6 °F 55% 30.28 in 10.0 mi NNE 9.2 mph - N/A   Clear
9:55 AM 64.4 °F - 41.0 °F 42% 30.29 in 10.0 mi NE 5.8 mph - N/A   Clear
10:15 AM 66.2 °F - 39.2 °F 37% 30.29 in 10.0 mi ENE 8.1 mph - N/A   Clear
10:35 AM 66.2 °F - 39.2 °F 37% 30.29 in 10.0 mi North 5.8 mph - N/A   Clear
2:55 PM 75.2 °F - 35.6 °F 24% 30.21 in 10.0 mi ENE 5.8 mph - N/A   Clear
3:15 PM 75.2 °F - 37.4 °F 25% 30.21 in 10.0 mi SE 5.8 mph - N/A   Clear
3:35 PM 75.2 °F - 37.4 °F 25% 30.20 in 10.0 mi East 4.6 mph - N/A   Clear
3:55 PM 75.2 °F - 37.4 °F 25% 30.20 in 10.0 mi East 5.8 mph - N/A   Clear
4:15 PM 73.4 °F - 37.4 °F 27% 30.20 in 10.0 mi ENE 5.8 mph - N/A   Clear
4:35 PM 73.4 °F - 37.4 °F 27% 30.20 in 10.0 mi East 4.6 mph - N/A   Clear
4:55 PM 71.6 °F - 37.4 °F 29% 30.20 in 10.0 mi East 5.8 mph - N/A   Clear
5:15 PM 71.6 °F - 39.2 °F 31% 30.21 in 10.0 mi East 3.5 mph - N/A   Clear
5:35 PM 68.0 °F - 41.0 °F 37% 30.21 in 10.0 mi NE 3.5 mph - N/A   Clear
5:55 PM 66.2 °F - 42.8 °F 43% 30.22 in 10.0 mi NE 3.5 mph - N/A   Clear
6:15 PM 66.2 °F - 41.0 °F 40% 30.22 in 10.0 mi NNE 3.5 mph - N/A   Clear
6:35 PM 66.2 °F - 41.0 °F 40% 30.23 in 10.0 mi NNE 3.5 mph - N/A   Clear
6:55 PM 62.6 °F - 42.8 °F 48% 30.23 in 10.0 mi NE 3.5 mph - N/A   Clear
7:15 PM 62.6 °F - 42.8 °F 48% 30.23 in 10.0 mi NE 3.5 mph - N/A   Clear
7:35 PM 60.8 °F - 41.0 °F 48% 30.24 in 10.0 mi NE 3.5 mph - N/A   Clear
7:55 PM 60.8 °F - 39.2 °F 45% 30.24 in 10.0 mi NE 3.5 mph - N/A   Clear
8:15 PM 59.0 °F - 41.0 °F 51% 30.25 in 10.0 mi Calm Calm - N/A   Clear
8:35 PM 59.0 °F - 41.0 °F 51% 30.25 in 10.0 mi NE 3.5 mph - N/A   Clear
8:55 PM 57.2 °F - 39.2 °F 51% 30.26 in 10.0 mi ENE 4.6 mph - N/A   Clear
9:15 PM 59.0 °F - 39.2 °F 48% 30.26 in 10.0 mi ENE 3.5 mph - N/A   Clear
9:35 PM 57.2 °F - 41.0 °F 55% 30.26 in 10.0 mi ENE 3.5 mph - N/A   Clear
9:55 PM 57.2 °F - 41.0 °F 55% 30.27 in 10.0 mi NE 3.5 mph - N/A   Clear
10:15 PM 57.2 °F - 42.8 °F 59% 30.27 in 10.0 mi ENE 3.5 mph - N/A   Clear
10:35 PM 55.4 °F - 44.6 °F 67% 30.27 in 10.0 mi ENE 5.8 mph - N/A   Clear
10:55 PM 55.4 °F - 46.4 °F 72% 30.27 in 10.0 mi ENE 4.6 mph - N/A   Clear
11:15 PM 55.4 °F - 46.4 °F 72% 30.27 in 10.0 mi NE 3.5 mph - N/A   Clear
11:35 PM 55.4 °F - 46.4 °F 72% 30.27 in 10.0 mi Calm Calm - N/A   Clear
11:55 PM 53.6 °F - 46.4 °F 77% 30.27 in 10.0 mi NE 3.5 mph - N/A   Clear